Torna al catalogo

STARLINK-34079

AttivoComunicazioniVLEO
NORAD 64038·PAYLOAD·🇺🇸 United States

Lanciato May 16, 2025 da Vandenberg Space Force Base

Loading…

Prossimi Passaggi (prossime 24 ore)

TLE

AggiornatoSource: CelesTrak SupGP

Epoca: Sep 15, 2026, 02:10 UTC

1 64038C 25102S   26258.09076389  .00106650  00000+0  37166-2 0  2586
2 64038  70.0009 355.2080 0003160 266.4395 148.4457 15.29469636    12

Traccia STARLINK-34079 in tempo reale con AllMySat

Download on the App Store